Wind_Speed
18 20 18 18 19 19 19 18 18 17 17 17 17 17 18 19 19 19 18 18 16 15 14 12 11 11 10 9 8 8 7 6 5 5 4 3 3 2 2 2 2 2 2
19 19 17 19 18 19 19 19 18 17 17 17 17 18 18 19 20 20 19 18 17 16 14 13 12 11 11 10 9 9 8 7 7 6 5 4 3 3 3 2 1 2 2
18 18 18 17 16 17 17 17 18 18 18 18 17 17 18 19 20 20 20 19 18 17 15 14 13 12 11 11 10 9 9 8 7 7 6 5 4 3 3 2 2 2 2
17 16 17 16 16 16 16 15 17 17 17 18 17 18 20 20 20 21 21 20 19 18 16 15 15 14 12 12 11 11 10 10 9 8 7 6 5 4 3 3 3 3 3
16 17 17 16 15 15 14 14 17 17 17 18 18 19 20 20 21 21 20 20 19 18 18 17 16 15 14 13 13 12 11 11 10 9 8 7 6 5 5 4 4 4 4
16 16 15 15 13 12 13 13 15 16 16 18 19 18 19 20 20 21 20 20 19 19 19 18 17 16 15 14 13 13 12 11 10 10 9 8 7 6 5 5 5 6 6
15 15 14 12 10 10 11 11 12 13 14 16 18 18 18 20 20 20 20 20 20 19 19 19 18 17 16 15 14 13 13 12 11 11 10 8 8 7 6 7 7 8 8
14 13 12 11 9 9 9 9 9 10 12 15 16 17 17 18 19 20 20 20 20 20 20 19 18 18 17 16 15 14 13 12 12 12 11 10 9 8 8 8 9 10 10
13 11 10 9 9 9 8 7 8 9 11 13 15 16 17 18 19 19 19 19 19 19 19 19 18 18 17 16 15 15 14 13 13 13 12 11 11 10 10 10 11 12 12
12 10 8 7 7 8 7 7 6 8 10 12 13 15 17 18 18 19 19 19 19 19 19 19 18 17 17 16 16 16 15 14 14 14 14 13 12 12 13 13 14 14 15
12 10 7 7 7 6 6 6 6 7 9 10 11 13 15 16 17 18 19 18 18 18 18 19 19 18 17 16 17 17 16 16 15 15 15 15 15 15 16 16 17 17 18
11 10 8 7 7 6 5 5 5 5 7 8 10 11 13 14 15 16 17 17 18 18 18 18 18 18 17 17 17 17 17 17 17 17 17 18 18 19 19 19 19 20 21
13 11 9 8 8 7 5 4 4 4 5 5 7 10 11 12 13 15 16 17 17 18 18 17 17 17 17 17 17 18 19 18 19 19 20 21 22 22 22 22 22 23 24
14 13 11 10 8 7 6 4 3 3 4 5 7 10 11 12 13 14 15 17 17 18 18 17 17 16 17 18 18 19 20 20 21 22 23 24 24 24 24 25 26 26 27
14 14 13 11 9 8 7 5 4 3 3 5 6 8 10 11 11 12 13 16 16 16 17 17 17 18 18 19 20 21 21 22 23 23 24 25 26 26 27 27 28 30 30
15 14 13 12 11 10 8 7 6 6 6 5 7 8 9 11 12 12 13 15 16 17 17 17 18 19 19 20 21 21 21 22 24 25 26 27 28 29 29 30 31 32 33
17 16 14 13 12 12 11 10 9 9 9 9 9 10 11 12 13 14 14 15 16 17 17 17 18 18 19 20 21 22 23 24 25 26 28 29 30 31 32 33 34 35 36
18 17 16 15 14 13 13 13 12 11 11 12 12 11 12 13 15 16 16 17 17 18 18 18 19 20 21 22 23 24 25 26 27 28 29 31 32 33 34 35 36 37 38
20 19 18 17 16 16 16 15 15 14 14 14 14 14 14 15 16 17 17 18 19 20 21 22 22 23 23 24 25 26 27 28 30 31 32 33 34 35 36 37 38 39 40
22 21 20 19 18 18 17 17 17 16 16 16 16 16 17 17 18 19 18 20 21 22 23 24 25 25 26 27 28 29 30 30 32 33 34 36 36 38 39 40 41 41 42
23 23 22 21 20 20 19 19 18 18 18 17 18 18 19 19 19 20 21 21 22 23 25 26 26 27 28 29 30 31 32 34 35 36 37 38 39 39 40 42 43 44 45
24 24 24 23 22 21 21 20 20 20 20 20 20 20 20 20 21 21 21 22 23 24 25 26 28 29 30 31 32 34 35 36 37 38 39 40 40 40 42 44 45 47 48
26 25 25 24 24 24 23 22 22 22 22 22 22 21 22 23 23 23 24 25 26 26 28 29 30 31 32 33 34 36 37 38 39 40 41 41 42 42 44 46 46 48 48
25 25 25 25 25 25 25 24 23 23 24 24 24 24 24 24 25 25 26 28 28 29 29 30 31 32 33 35 35 36 37 38 40 40 41 42 43 43 44 45 45 47 48
24 24 24 24 25 25 25 25 24 25 25 26 27 27 26 26 27 27 27 28 29 30 30 31 32 33 34 35 36 37 37 38 40 41 42 43 43 45 45 46 46 46 47
21 21 22 22 23 24 25 25 24 25 25 25 26 27 27 28 29 29 29 30 30 30 30 32 32 33 35 37 37 38 39 41 41 42 43 44 44 45 46 46 47 47 48
Wind_Direction
293 293 290 284 281 279 278 277 271 263 255 252 246 238 234 232 230 228 230 230 230 232 233 234 234 234 237 240 237 232 229 227 226 229 233 241 243 248 246 256 275 304 312
294 297 292 290 284 281 276 272 266 260 257 251 245 238 231 229 229 229 228 227 228 228 231 231 233 234 236 237 239 237 231 230 229 231 232 236 241 239 239 249 273 288 298
297 302 300 293 289 284 276 267 260 257 253 248 242 234 229 230 229 229 227 226 225 227 230 229 231 231 233 235 235 236 231 231 230 233 236 231 228 228 233 252 274 283 293
297 300 300 294 288 283 278 264 254 252 248 242 239 235 233 231 231 231 229 226 226 227 231 230 231 232 233 233 234 235 234 232 231 232 234 227 224 231 237 256 270 284 292
299 299 300 296 289 282 276 261 251 250 244 238 238 236 234 232 230 229 228 226 226 227 230 231 233 233 233 234 233 235 234 230 229 230 231 229 230 234 240 251 262 274 285
299 301 300 296 291 283 273 262 252 246 239 234 235 239 236 234 231 229 226 225 226 228 230 230 232 232 233 233 234 235 233 229 227 227 230 233 239 245 251 257 264 273 282
299 302 301 296 285 277 278 267 255 244 236 234 235 235 234 233 229 225 222 223 226 228 227 226 229 231 232 232 232 233 228 228 226 225 229 234 242 252 261 267 271 275 282
297 300 300 294 282 276 275 273 254 239 236 236 236 231 229 227 224 221 218 219 224 225 225 226 229 231 233 233 229 226 226 228 229 230 234 240 246 254 265 274 278 282 286
298 299 300 294 281 278 272 269 253 239 235 235 233 227 224 222 219 218 216 219 220 221 223 224 228 231 233 230 226 225 228 233 232 234 236 244 249 257 265 274 281 286 288
297 297 301 301 289 279 270 269 257 242 239 237 230 222 219 218 216 213 215 218 219 220 222 223 226 228 228 228 229 230 233 235 235 236 242 247 253 261 268 273 279 285 288
293 293 301 307 303 276 266 263 258 247 241 234 222 214 214 214 213 211 213 216 217 218 220 222 224 225 227 230 232 233 235 237 239 241 245 251 257 263 269 274 279 283 286
291 292 296 306 313 300 273 262 254 248 242 228 215 212 213 210 211 211 212 216 217 218 222 225 226 227 229 232 234 235 237 239 243 245 249 256 261 265 269 274 278 282 284
285 286 290 298 305 312 312 292 270 256 229 219 210 206 207 212 215 215 215 217 220 223 226 226 228 230 232 236 238 238 240 244 249 253 257 261 265 268 271 274 277 281 284
281 282 282 286 291 297 302 298 286 252 227 220 218 216 217 220 220 219 220 222 224 226 228 228 231 236 239 240 242 244 246 251 255 259 262 265 269 271 274 276 279 281 284
276 278 277 276 280 284 286 286 273 257 236 226 222 218 216 216 217 220 223 225 225 228 231 233 236 242 244 247 249 251 254 256 259 262 265 268 271 272 275 278 280 282 284
271 274 273 273 273 273 275 271 266 263 254 244 233 226 222 219 223 227 230 230 231 234 236 240 243 246 248 251 253 255 259 262 264 266 268 271 274 276 277 279 281 282 284
266 268 268 268 269 268 267 267 262 260 256 253 248 239 235 233 233 237 238 238 238 240 243 247 249 252 256 257 258 261 264 266 268 271 272 272 275 276 278 280 281 283 284
262 262 263 262 263 265 267 268 264 260 257 251 249 248 246 242 241 244 246 245 246 247 248 251 254 256 259 261 263 265 267 270 271 274 275 276 278 279 280 280 281 283 284
261 261 261 260 262 264 264 265 264 261 259 254 252 254 255 252 249 250 251 250 250 252 253 255 257 258 260 263 266 269 271 272 274 276 278 279 280 281 282 282 283 283 284
258 259 259 260 260 262 262 263 263 262 260 256 258 259 262 262 257 255 254 253 253 255 256 258 260 261 263 266 269 271 273 275 276 278 279 280 280 281 282 283 284 284 284
257 257 257 259 261 262 262 262 261 259 260 259 260 262 264 265 265 261 257 259 260 260 260 262 263 264 266 268 270 272 275 277 278 279 281 281 282 282 282 283 283 284 284
257 258 257 257 259 260 260 262 260 259 260 261 260 262 265 268 268 265 265 264 265 264 265 265 266 268 270 271 273 275 277 279 280 281 282 282 282 282 283 285 285 285 286
257 257 256 256 257 258 258 260 261 261 262 263 263 262 266 269 269 269 269 269 268 268 269 269 271 272 273 274 276 278 278 280 281 283 282 282 283 284 285 286 286 287 287
258 256 255 255 256 257 257 259 261 262 262 263 264 265 267 270 273 273 271 271 273 273 273 272 272 273 274 275 277 279 280 282 283 283 285 285 286 288 289 289 289 288 288
256 255 254 254 254 256 257 258 260 263 264 264 265 266 268 271 272 273 275 274 275 275 275 275 275 275 276 276 277 280 282 283 285 286 287 288 288 290 290 290 290 290 290
254 254 253 255 256 257 258 259 261 263 265 266 266 266 269 271 271 272 274 275 276 277 279 278 278 278 281 282 282 283 284 285 286 288 289 290 290 291 290 290 290 291 292
Height
5847 5845 5844 5844 5844 5843 5843 5844 5844 5845 5846 5848 5850 5853 5857 5860 5863 5866 5868 5871 5873 5876 5878 5880 5882 5883 5884 5885 5886 5887 5889 5890 5891 5892 5892 5893 5893 5894 5894 5895 5896 5897 5897
5843 5840 5839 5839 5839 5838 5838 5839 5840 5841 5843 5845 5847 5850 5853 5856 5859 5863 5866 5868 5871 5873 5876 5878 5880 5881 5883 5884 5885 5886 5888 5889 5890 5891 5891 5892 5893 5893 5894 5894 5895 5896 5896
5840 5838 5836 5834 5834 5834 5834 5834 5835 5837 5839 5841 5843 5846 5849 5852 5856 5860 5863 5865 5868 5871 5873 5876 5878 5879 5881 5882 5883 5885 5886 5887 5888 5889 5890 5891 5892 5892 5893 5893 5894 5895 5895
5836 5835 5833 5831 5831 5830 5829 5829 5831 5833 5834 5837 5839 5842 5846 5849 5853 5856 5859 5862 5865 5868 5871 5874 5876 5877 5879 5880 5881 5883 5884 5885 5886 5887 5888 5890 5890 5891 5892 5893 5893 5894 5894
5833 5831 5830 5828 5827 5826 5825 5826 5827 5828 5830 5832 5835 5839 5842 5845 5848 5852 5856 5859 5862 5865 5868 5871 5873 5875 5877 5878 5879 5881 5882 5883 5884 5886 5887 5888 5889 5890 5891 5891 5892 5892 5893
5830 5828 5826 5824 5823 5823 5822 5822 5823 5824 5827 5829 5831 5834 5838 5841 5844 5848 5852 5856 5859 5862 5865 5868 5870 5872 5874 5876 5877 5878 5880 5881 5882 5884 5885 5886 5887 5888 5889 5890 5890 5891 5891
5827 5826 5823 5821 5821 5821 5820 5820 5820 5821 5823 5825 5828 5831 5833 5837 5840 5844 5848 5852 5856 5859 5862 5865 5867 5869 5871 5873 5874 5876 5878 5879 5880 5882 5883 5884 5886 5886 5887 5888 5888 5889 5889
5825 5823 5821 5820 5819 5819 5818 5818 5818 5819 5821 5823 5825 5828 5830 5833 5837 5841 5844 5848 5852 5855 5858 5861 5864 5866 5868 5870 5872 5873 5875 5877 5878 5880 5881 5883 5884 5884 5885 5885 5886 5886 5886
5823 5822 5820 5818 5817 5817 5816 5816 5816 5817 5818 5820 5822 5825 5827 5830 5834 5838 5841 5845 5849 5852 5855 5858 5860 5863 5865 5867 5869 5871 5873 5874 5876 5878 5879 5880 5881 5882 5882 5883 5883 5883 5883
5821 5820 5819 5817 5817 5816 5815 5815 5815 5816 5817 5818 5820 5822 5825 5828 5831 5835 5839 5843 5846 5849 5852 5854 5857 5859 5862 5864 5866 5868 5870 5872 5873 5875 5876 5877 5878 5879 5879 5880 5880 5880 5880
5819 5819 5818 5817 5815 5814 5814 5814 5814 5815 5816 5817 5819 5821 5824 5827 5830 5833 5837 5840 5843 5846 5849 5851 5854 5856 5858 5860 5863 5865 5867 5869 5870 5872 5873 5874 5875 5875 5876 5876 5876 5876 5876
5817 5817 5816 5816 5814 5813 5813 5813 5814 5814 5815 5816 5818 5820 5823 5825 5828 5831 5835 5838 5841 5844 5846 5848 5851 5853 5855 5857 5859 5861 5863 5865 5867 5868 5869 5870 5870 5871 5871 5871 5872 5871 5871
5816 5816 5815 5814 5814 5813 5812 5813 5813 5814 5815 5816 5817 5819 5822 5825 5827 5830 5833 5836 5839 5841 5843 5846 5848 5850 5852 5854 5856 5858 5860 5861 5862 5864 5865 5865 5866 5866 5866 5866 5866 5866 5865
5814 5814 5814 5813 5812 5813 5813 5813 5814 5814 5815 5816 5817 5819 5821 5823 5826 5829 5831 5834 5836 5839 5841 5843 5845 5847 5849 5850 5852 5854 5855 5857 5858 5859 5860 5860 5860 5860 5860 5860 5860 5859 5859
5811 5812 5812 5812 5811 5812 5812 5813 5813 5814 5815 5816 5817 5818 5820 5822 5824 5826 5828 5831 5833 5835 5838 5840 5841 5843 5845 5846 5848 5849 5850 5851 5852 5853 5854 5854 5854 5854 5854 5854 5853 5853 5852
5809 5810 5810 5810 5810 5811 5811 5812 5813 5814 5814 5815 5816 5817 5819 5820 5822 5824 5826 5828 5830 5832 5834 5836 5837 5839 5840 5842 5843 5844 5845 5846 5847 5847 5847 5847 5847 5847 5847 5846 5846 5845 5844
5806 5807 5807 5808 5808 5809 5809 5810 5811 5812 5813 5814 5815 5816 5817 5818 5820 5822 5824 5825 5827 5829 5830 5832 5833 5835 5836 5837 5838 5839 5840 5840 5841 5840 5840 5840 5840 5840 5839 5838 5837 5836 5835
5802 5804 5804 5805 5806 5806 5807 5808 5809 5810 5811 5812 5813 5814 5814 5815 5817 5818 5820 5822 5823 5825 5826 5828 5829 5830 5831 5832 5832 5833 5833 5834 5834 5833 5833 5832 5831 5831 5830 5829 5828 5827 5825
5798 5799 5800 5801 5803 5803 5804 5805 5806 5807 5808 5808 5809 5810 5811 5812 5813 5814 5815 5817 5818 5820 5821 5822 5823 5824 5825 5825 5826 5826 5826 5826 5826 5825 5824 5824 5823 5822 5820 5819 5818 5817 5816
5793 5795 5796 5797 5798 5800 5800 5801 5802 5803 5804 5804 5805 5806 5807 5808 5809 5809 5810 5811 5812 5814 5815 5816 5817 5817 5818 5818 5818 5818 5818 5818 5817 5816 5815 5814 5813 5812 5810 5809 5807 5806 5804
5788 5789 5791 5792 5793 5795 5796 5797 5798 5799 5800 5800 5801 5802 5802 5802 5803 5804 5805 5806 5806 5807 5808 5809 5810 5810 5810 5810 5810 5809 5809 5808 5808 5807 5806 5804 5803 5801 5799 5797 5795 5793 5791
5782 5783 5785 5787 5788 5789 5791 5792 5793 5794 5795 5796 5796 5797 5797 5797 5798 5799 5799 5800 5800 5801 5801 5801 5802 5802 5802 5802 5801 5800 5800 5799 5798 5796 5795 5793 5792 5790 5788 5785 5783 5780 5778
5776 5777 5779 5781 5782 5784 5785 5786 5788 5789 5789 5790 5791 5791 5792 5792 5792 5793 5794 5794 5794 5794 5794 5794 5794 5794 5793 5793 5792 5791 5790 5788 5787 5786 5783 5781 5779 5777 5775 5773 5770 5767 5764
5769 5771 5773 5774 5776 5777 5779 5780 5781 5783 5783 5784 5785 5785 5786 5786 5786 5787 5787 5787 5787 5786 5786 5785 5785 5785 5785 5784 5783 5781 5780 5778 5777 5774 5772 5770 5767 5765 5762 5759 5756 5753 5750
5763 5765 5766 5768 5770 5771 5773 5774 5775 5776 5777 5777 5778 5778 5779 5779 5780 5779 5779 5779 5779 5779 5778 5777 5776 5775 5775 5774 5773 5771 5770 5768 5766 5763 5761 5758 5755 5752 5749 5746 5743 5740 5736
5757 5759 5761 5762 5763 5765 5766 5767 5768 5769 5770 5770 5771 5771 5772 5772 5772 5772 5772 5771 5771 5771 5769 5768 5767 5765 5765 5764 5762 5760 5758 5756 5753 5751 5748 5745 5742 5739 5736 5733 5729 5726 5722